[[{"header":{"parameterUnit":"m.s-1","parameterCategory":1,"la1":30.2991,"la2":30.254,"lo1":-89.0895,"lo2":-89.0444,"dy":0.0017,"dx":0.0017,"nx":28,"ny":28,"refTime":"2024-02-21T03:00:00:Z","depth":0,"parameterNumber":2,"parameterNumberName":"U-component_of_WINDS"},"data":[0,0,0,0,0,0,0,0,0,0,0,0,0,0,0,0,0,0,0,0,0,0,0,0,0,0,0,0,0,0,0,0,0,0,0,0,0,0,0,0,0,0,0,0,0,0,0,0,0,0,0,0,0,0,0,0,0,0,0.8727,0.8727,0,0.8752,0.8753,0.8753,0.8751,0.875,0.875,0.875,0.8776,0.8777,0.8778,0,0,0,0,0,0,0,0,0,0,0,0,0,0.8677,0.8678,0.8727,0.8727,0.8728,0.8752,0.8753,0.8753,0.8751,0.875,0.875,0.8749,0.8776,0.8777,0.8778,0,0,0,0,0,0,0,0,0,0,0,0,0,0.87,0.8679,0.8727,0.873,0.873,0.8752,0.8753,0.8753,0.8751,0.875,0.875,0.8749,0.8775,0.8777,0.8778,0.88,0,0,0.8783,0.8784,0,0,0,0,0,0,0,0,0.8699,0.8702,0.8729,0.8729,0.873,0.8748,0.8745,0.8769,0.8751,0.8743,0.875,0.8749,0.8767,0.8769,0.8775,0.8801,0.8802,0.8783,0.8784,0.8785,0.8785,0,0,0,0,0,0,0,0.8698,0.8701,0.8737,0.8729,0.873,0.873,0.8732,0.8749,0.8758,0.8744,0.8744,0.8747,0.8767,0.8774,0.8776,0.8802,0.8783,0.8785,0.8786,0.8786,0.8846,0.8847,0,0,0,0,0,0,0.8695,0.87,0.8736,0.8738,0.8713,0.8731,0.8734,0.8743,0.8758,0.876,0.8747,0.8746,0.8771,0.8774,0.8777,0.8802,0.8785,0.8786,0.8787,0.8846,0.8846,0.8847,0,0,0,0,0,0,0.8694,0.8699,0.8735,0.8719,0.8723,0.8732,0.8742,0.8743,0.875,0.876,0.8762,0.8752,0.8771,0.8775,0.8794,0.8803,0.8787,0.8789,0.8845,0.8846,0.8847,0.8854,0,0,0,0,0,0,0.8693,0.8698,0.8706,0.8719,0.8724,0.8752,0.8743,0.8744,0.8753,0.8752,0.8765,0.8767,0.8771,0.8791,0.8795,0.8805,0.879,0.8844,0.8845,0.8846,0.8853,0.8855,0.8857,0,0,0,0,0,0.8691,0.8708,0.8707,0.8711,0.8735,0.8752,0.8755,0.8759,0.8753,0.8762,0.8768,0.8767,0.8802,0.8793,0.8798,0.8808,0.8843,0.8845,0.8846,0.8852,0.8855,0.8857,0,0,0,0,0,0,0.8696,0.8709,0.8709,0.873,0.874,0.8752,0.8762,0.8762,0.8774,0.8773,0.8777,0.878,0.88,0.8806,0.8797,0.883,0.8822,0.8824,0.8825,0.8827,0.8829,0.8827,0.8791,0,0,0,0,0,0.8699,0.8712,0.8723,0.8741,0.8746,0.8753,0.8761,0.8763,0.8774,0.8778,0.8786,0.8797,0.8811,0.8819,0.8832,0.8854,0.8857,0.8863,0.8865,0.8867,0.8869,0.8881,0.8884,0.8852,0.8852,0.8852,0,0,0.8707,0.8716,0.8724,0.8742,0.875,0.8764,0.8757,0.8772,0.8782,0.8781,0.8799,0.8805,0.8818,0.8838,0.8848,0.8844,0.8878,0.8869,0.887,0.8871,0.8882,0.8885,0.8888,0.8853,0.8853,0.8852,0,0,0.8727,0.8735,0.875,0.8759,0.8771,0.8776,0.8779,0.8792,0.8796,0.8814,0.8814,0.8826,0.8849,0.8858,0.8865,0.8888,0.8887,0.8893,0.8903,0.8914,0.8917,0.8919,0.8927,0.893,0.8894,0.8895,0.8895,0,0.8734,0.8755,0.8758,0.8773,0.8781,0.8781,0.8796,0.8804,0.882,0.8826,0.8821,0.885,0.8858,0.8881,0.8886,0.8893,0.8897,0.8891,0.8916,0.8918,0.892,0.8928,0.8931,0.8895,0.8895,0.8895,0.8895,0,0.8763,0.8777,0.8788,0.8803,0.8813,0.8828,0.8834,0.8843,0.8844,0.8849,0.8868,0.8878,0.8893,0.8898,0.89,0.8921,0.8918,0.8915,0.8907,0.8924,0.8931,0.8934,0.8896,0.8896,0.8895,0.8895,0,0,0.8787,0.8804,0.8808,0.8815,0.8828,0.8839,0.8854,0.8869,0.8876,0.8887,0.89,0.892,0.8916,0.8925,0.8927,0.8937,0.8955,0.8933,0.8933,0.8936,0.8979,0.8981,0.8984,0.8954,0.8955,0.8955,0.8977,0,0.8808,0.8835,0.8838,0.8862,0.8875,0.8875,0.8888,0.8898,0.8903,0.8915,0.892,0.8934,0.8929,0.8934,0.8944,0.8951,0.8963,0.8949,0.8966,0.8967,0.8963,0.8988,0.899,0.9011,0.898,0.8981,0.8981,0,0.8836,0.8848,0.8873,0.8885,0.889,0.8902,0.8915,0.8927,0.8938,0.8941,0.895,0.8951,0.8967,0.8959,0.898,0.897,0.8978,0.8982,0.8983,0.8984,0.8975,0.899,0.9017,0.902,0.8986,0.8985,0.8985,0,0.8851,0.8873,0.8891,0.8897,0.8911,0.8919,0.8925,0.8936,0.8944,0.8956,0.8961,0.8975,0.8982,0.8992,0.8997,0.8991,0.9018,0.901,0.9021,0.9021,0.9027,0.9026,0.9055,0.9032,0.9032,0.9032,0.9032,0,0.8874,0.8889,0.8897,0.8908,0.8925,0.8929,0.8946,0.8952,0.8961,0.8973,0.8974,0.8985,0.8991,0.9003,0.9007,0.9024,0.9027,0.903,0.9031,0.903,0.9029,0.9034,0.9033,0.9033,0.9032,0.9032,0.9032,0,0.8893,0.8899,0.8918,0.893,0.8933,0.8945,0.8956,0.8966,0.8971,0.8986,0.899,0.8998,0.9012,0.9018,0.9036,0.9038,0.9058,0.9058,0.9054,0.9054,0.9064,0.9063,0.9097,0.9102,0.9076,0.9076,0.9076,0,0.8907,0.8919,0.8932,0.894,0.8947,0.896,0.8968,0.8973,0.8982,0.8995,0.9004,0.9018,0.903,0.9052,0.906,0.9073,0.9073,0.9084,0.9075,0.9074,0.9073,0.9072,0.9073,0.9086,0.9086,0.9086,0.9087,0,0.8932,0.8934,0.8947,0.896,0.897,0.8981,0.8991,0.8997,0.9004,0.9014,0.9028,0.9037,0.9055,0.9069,0.9082,0.9089,0.9089,0.9089,0.9092,0.9091,0.9089,0.909,0.9058,0.9088,0.9088,0.9088,0.9088,0.9088,0.8949,0.8959,0.897,0.8983,0.8992,0.9001,0.9012,0.9018,0.903,0.9045,0.9047,0.9063,0.9073,0.9092,0.9099,0.9111,0.9108,0.9113,0.9114,0.9115,0.9115,0.9087,0.9114,0.9113,0.9113,0.9113,0.9113,0,0.8973,0.898,0.8993,0.9007,0.9018,0.9017,0.9028,0.9037,0.9051,0.9061,0.9072,0.9089,0.9102,0.9111,0.9124,0.9132,0.9133,0.9136,0.9135,0.9136,0.9117,0.9113,0.9135,0.9135,0.9135,0.9135,0.9135,0.9135,0.8987,0.9004,0.9008,0.9029,0.9036,0.9051,0.9058,0.9067,0.9075,0.9093,0.9105,0.911,0.9119,0.9134,0.9146,0.9148,0.9153,0.9156,0.9158,0.914,0.9138,0.9136,0.9132,0.9157,0.9157,0.9176,0.9177,0.9177]},{"header":{"parameterUnit":"m.s-1","parameterCategory":1,"la1":30.2991,"la2":30.254,"lo1":-89.0895,"lo2":-89.0444,"dy":0.0017,"dx":0.0017,"nx":28,"ny":28,"refTime":"2024-02-21T03:00:00:Z","depth":0,"parameterNumber":3,"parameterNumberName":"V-component_of_WINDS"},"data":[0,0,0,0,0,0,0,0,0,0,0,0,0,0,0,0,0,0,0,0,0,0,0,0,0,0,0,0,0,0,0,0,0,0,0,0,0,0,0,0,0,0,0,0,0,0,0,0,0,0,0,0,0,0,0,0,0,0,4.9816,4.9817,0,4.9901,4.9902,4.9903,4.992,4.992,4.9919,4.9918,4.9998,5.0001,5.0003,0,0,0,0,0,0,0,0,0,0,0,0,0,4.9662,4.9665,4.9816,4.9817,4.9818,4.9901,4.9902,4.9903,4.992,4.992,4.9919,4.9918,4.9997,5.0,5.0004,0,0,0,0,0,0,0,0,0,0,0,0,0,4.9736,4.9666,4.9815,4.9837,4.9839,4.9901,4.9902,4.9903,4.9921,4.992,4.9919,4.9918,4.9996,5.0,5.0004,5.0048,0,0,5.0016,5.0018,0,0,0,0,0,0,0,0,4.9732,4.9742,4.9832,4.9835,4.9839,4.9899,4.9877,4.9952,4.9921,4.9889,4.9918,4.9917,4.9965,4.9972,4.999,5.0052,5.0055,5.0017,5.0019,5.0021,5.0022,0,0,0,0,0,0,0,4.9727,4.9738,4.9849,4.9834,4.9837,4.984,4.9849,4.9891,4.9931,4.9892,4.9894,4.9904,4.9967,4.9986,4.9992,5.0056,5.0017,5.002,5.0023,5.0024,5.016,5.0161,0,0,0,0,0,0,4.9719,4.9734,4.9846,4.9852,4.9782,4.9844,4.9854,4.9881,4.9931,4.9938,4.9905,4.9904,4.9979,4.9987,4.9995,5.0051,5.0021,5.0025,5.0027,5.0159,5.016,5.0162,0,0,0,0,0,0,4.9715,4.9729,4.9843,4.9793,4.9808,4.9847,4.9877,4.9883,4.9902,4.9941,4.9947,4.9917,4.9979,4.9989,5.0036,5.0054,5.0027,5.003,5.0158,5.0159,5.0161,5.0163,0,0,0,0,0,0,4.9711,4.9727,4.9746,4.9794,4.9811,4.9884,4.9878,4.9885,4.991,4.991,4.9954,4.996,4.9979,5.0029,5.004,5.0059,5.0033,5.0156,5.0158,5.0161,5.0161,5.0164,5.0167,0,0,0,0,0,4.9705,4.974,4.9746,4.976,4.9835,4.9885,4.9895,4.9918,4.9911,4.9929,4.9954,4.9959,5.005,5.0034,5.0046,5.0066,5.0155,5.0158,5.016,5.016,5.0164,5.0167,0,0,0,0,0,0,4.969,4.9747,4.9754,4.9806,4.9841,4.9888,4.9911,4.9921,4.9956,4.9955,4.9979,4.9989,5.0035,5.0055,5.0036,5.0112,5.0102,5.0107,5.0098,5.0102,5.0104,5.0098,5.0037,0,0,0,0,0,4.9693,4.9732,4.9778,4.982,4.9837,4.9871,4.9894,4.9909,4.9945,4.9959,4.9988,5.0021,5.0057,5.008,5.0116,5.0164,5.0174,5.0184,5.0187,5.0189,5.0193,5.0222,5.0227,5.017,5.017,5.017,0,0,4.9699,4.9735,4.9757,4.9818,4.9846,4.9885,4.9883,4.9923,4.9951,4.9964,5.0012,5.0034,5.0072,5.0121,5.0143,5.0139,5.0211,5.0193,5.0194,5.0197,5.0225,5.0231,5.0235,5.0172,5.0172,5.0172,0,0,4.9729,4.976,4.9799,4.9829,4.9875,4.9898,4.9907,4.9953,4.997,5.0018,5.003,5.0062,5.0124,5.0152,5.0173,5.0218,5.0223,5.0228,5.0243,5.0271,5.0275,5.0279,5.0296,5.0301,5.0232,5.0232,5.0232,0,4.973,4.979,4.9817,4.9858,4.9885,4.9902,4.9941,4.9968,5.0021,5.0038,5.0033,5.0113,5.014,5.0196,5.0207,5.0224,5.0235,5.0223,5.0273,5.0277,5.0281,5.0297,5.0304,5.0232,5.0232,5.0232,5.0232,0,4.979,4.9831,4.9857,4.9912,4.9941,4.998,5.0012,5.0038,5.0051,5.0074,5.0124,5.0157,5.0201,5.0215,5.0226,5.0273,5.0269,5.0268,5.0258,5.0287,5.0302,5.0309,5.0233,5.0233,5.0233,5.0233,0,0,4.9811,4.9883,4.9892,4.9919,4.9971,5.0002,5.0043,5.0088,5.0111,5.0147,5.0181,5.0234,5.0235,5.026,5.0275,5.0299,5.0333,5.0295,5.0296,5.0302,5.0388,5.0389,5.0396,5.0338,5.0339,5.034,5.0385,0,4.9848,4.9924,4.9951,5.0013,5.0052,5.007,5.0105,5.014,5.0163,5.0198,5.0222,5.0261,5.0258,5.0273,5.0298,5.0324,5.0351,5.0321,5.0369,5.037,5.0359,5.0404,5.0404,5.0445,5.0391,5.0392,5.0393,0,4.9902,4.9944,5.001,5.006,5.0078,5.0109,5.0154,5.0188,5.0228,5.0243,5.0273,5.0287,5.0328,5.0316,5.0374,5.0353,5.0374,5.039,5.0392,5.0397,5.0383,5.0411,5.0458,5.0465,5.0403,5.0402,5.0401,0,4.9913,4.9984,5.0035,5.0056,5.0115,5.0137,5.0162,5.0202,5.0229,5.0267,5.0285,5.0326,5.0349,5.038,5.0405,5.0394,5.046,5.045,5.0473,5.0473,5.0486,5.0485,5.0539,5.0499,5.0499,5.0499,5.0499,0,4.9952,4.9992,5.0041,5.0071,5.0117,5.0147,5.019,5.0216,5.0252,5.0287,5.0304,5.0335,5.0366,5.0401,5.042,5.0466,5.0475,5.0488,5.0493,5.0487,5.0486,5.0501,5.0499,5.0501,5.05,5.05,5.05,0,4.9971,5.0005,5.0061,5.0114,5.0129,5.016,5.0204,5.0234,5.0259,5.0303,5.0315,5.0353,5.0396,5.0424,5.0477,5.049,5.054,5.0543,5.0528,5.053,5.0552,5.055,5.0618,5.0628,5.0581,5.0581,5.0582,0,4.9994,5.0027,5.0084,5.0111,5.0138,5.0179,5.0207,5.0238,5.0266,5.0316,5.034,5.0385,5.0423,5.049,5.0521,5.0562,5.0567,5.0588,5.0573,5.0567,5.0569,5.0567,5.057,5.059,5.0591,5.0591,5.0591,0,5.0032,5.0049,5.0091,5.0139,5.0174,5.0212,5.0251,5.0271,5.0308,5.0339,5.0385,5.0414,5.0472,5.0516,5.0561,5.0584,5.0594,5.0596,5.0604,5.0599,5.0589,5.0595,5.0535,5.0594,5.0594,5.0594,5.0594,5.0594,5.0055,5.0085,5.0132,5.0179,5.0212,5.0248,5.028,5.031,5.035,5.0402,5.0416,5.0465,5.0505,5.0567,5.0592,5.0628,5.0626,5.0637,5.0639,5.0642,5.0643,5.0583,5.0636,5.0636,5.0636,5.0636,5.0636,0,5.0095,5.0127,5.017,5.0225,5.0262,5.0272,5.0315,5.0344,5.0388,5.0426,5.0464,5.0517,5.0561,5.0597,5.0641,5.0664,5.067,5.0675,5.0673,5.0679,5.0642,5.0631,5.067,5.067,5.067,5.067,5.067,5.067,5.012,5.0173,5.0195,5.0264,5.0295,5.0345,5.0369,5.0403,5.0434,5.0494,5.0532,5.0556,5.0593,5.0641,5.0681,5.069,5.0706,5.071,5.072,5.0685,5.0681,5.0678,5.0668,5.0713,5.0714,5.0755,5.0755,5.0755]}]]